EW8130 Weather Reports


Display with metric or nautical units.
time (UTC)temp
F
wind
direction
speed
MPH
gust
MPH
rain 1hr
in
rain 24hr
in
rain mn
in
humidity
%
barometer
mb
20260901140009 85 112 0.0 1.0 0.00 0.00 0.00 70 996.2
20260901134507 83 79 0.0 1.0 0.00 0.00 0.00 71 996.3
20260901133009 82 165 0.0 1.0 0.00 0.00 0.00 73 996.4
20260901131508 81 164 0.0 1.0 0.00 0.00 0.00 73 996.3
20260901130003 80 174 0.0 1.0 0.00 0.00 0.00 75 996.1
20260901124502 80 87 0.0 1.0 0.00 0.00 0.00 75 995.9
20260901123001 79 66 0.0 2.0 0.00 0.00 0.00 76 995.6
20260901121611 80 74 0.0 1.0 0.00 0.00 0.00 75 995.5
20260901120106 80 89 0.0 2.0 0.00 0.00 0.00 75 995.3
20260901114600 80 79 0.0 1.0 0.00 0.00 0.00 75 995.0
20260901113055 80 107 0.0 0.0 0.00 0.00 0.00 75 994.9
20260901111556 80 107 0.0 0.0 0.00 0.00 0.00 74 995.0
20260901110052 80 101 0.0 1.0 0.00 0.00 0.00 73 994.9
20260901104551 80 89 0.0 1.0 0.00 0.00 0.00 72 994.8
20260901103056 80 91 0.0 1.0 0.00 0.00 0.00 72 994.8
20260901101553 80 50 0.0 1.0 0.00 0.00 0.00 71 994.8
20260901100048 80 75 0.0 2.0 0.00 0.00 0.00 70 994.9
20260901094548 81 83 0.0 2.0 0.00 0.00 0.00 70 995.0
20260901093114 81 50 0.0 2.0 0.00 0.00 0.00 69 995.0
20260901091559 81 65 0.0 2.0 0.00 0.00 0.00 67 994.9
20260901090042 82 67 0.0 2.0 0.00 0.00 0.00 67 994.8
20260901084540 82 45 0.0 1.0 0.00 0.00 0.00 66 994.7
20260901083044 82 53 0.0 1.0 0.00 0.00 0.00 65 994.6
20260901081537 83 40 0.0 1.0 0.00 0.00 0.00 64 994.7
20260901080038 83 93 0.0 1.0 0.00 0.00 0.00 63 994.6
20260901074532 83 86 0.0 2.0 0.00 0.00 0.00 62 994.5
20260901073029 83 43 0.0 2.0 0.00 0.00 0.00 62 994.5
20260901071532 84 45 0.0 2.0 0.00 0.00 0.00 61 994.5
20260901070029 84 42 0.0 2.0 0.00 0.00 0.00 60 994.4
20260901064528 84 48 0.0 2.0 0.00 0.00 0.00 59 994.4
20260901063023 85 38 0.0 1.0 0.00 0.00 0.00 58 994.3
20260901061521 85 67 0.0 2.0 0.00 0.00 0.00 58 994.2
20260901060018 86 31 0.0 2.0 0.00 0.00 0.00 56 994.0
20260901054516 86 31 0.0 2.0 0.00 0.00 0.00 56 993.9
20260901053017 86 70 0.0 2.0 0.00 0.00 0.00 55 993.7
20260901051514 86 72 0.0 3.0 0.00 0.00 0.00 55 993.7
20260901050011 87 35 0.0 6.0 0.00 0.00 0.00 54 993.6
20260901044512 87 4 0.0 1.0 0.00 0.00 0.00 52 993.5
20260901043010 87 21 0.0 1.0 0.00 0.00 0.00 51 993.5
20260901041510 88 28 0.0 2.0 0.00 0.00 0.00 49 993.5
20260901040009 89 29 0.0 1.0 0.00 0.00 0.00 49 993.4
20260901034511 90 55 0.0 2.0 0.00 0.00 0.00 47 993.3
20260901033011 90 43 0.0 2.0 0.00 0.00 0.00 47 993.3
20260901031512 90 42 0.0 1.0 0.00 0.00 0.00 47 993.3
20260901030013 91 44 0.0 2.0 0.00 0.00 0.00 46 993.2
20260901024506 91 69 0.0 2.0 0.00 0.00 0.00 46 993.0
20260901023008 91 48 0.0 2.0 0.00 0.00 0.00 45 992.8
20260901021506 91 39 0.0 2.0 0.00 0.00 0.00 45 992.6
20260901020006 92 33 0.0 2.0 0.00 0.00 0.00 44 992.5
20260901014504 93 56 0.0 2.0 0.00 0.00 0.00 43 992.5
20260901013005 93 37 0.0 1.0 0.00 0.00 0.00 42 992.4
20260901011504 94 44 0.0 1.0 0.00 0.00 0.00 41 992.4
20260901010003 95 23 0.0 2.0 0.00 0.00 0.00 40 992.2
20260901004502 96 33 0.0 2.0 0.00 0.00 0.00 38 992.2
20260901003002 96 35 1.0 5.0 0.00 0.00 0.00 37 992.1
20260901001506 97 23 0.0 2.0 0.00 0.00 0.00 36 992.1
20260901000100 97 48 2.0 10.0 0.00 0.00 0.00 35 992.2
20260901000001 97 53 1.0 9.0 0.00 0.00 0.00 35 992.1
20260831234605 98 52 0.0 6.0 0.00 0.00 0.00 34 992.2
20260831233102 98 54 0.0 7.0 0.00 0.00 0.00 34 992.2
20260831231600 99 28 0.0 2.0 0.00 0.00 0.00 34 992.1
20260831230105 99 71 0.0 2.0 0.00 0.00 0.00 33 992.1
20260831224557 98 23 0.0 3.0 0.00 0.00 0.00 33 992.3
20260831223056 99 50 0.0 2.0 0.00 0.00 0.00 33 992.4
20260831221600 99 122 0.0 1.0 0.00 0.00 0.00 33 992.5
20260831220112 100 43 0.0 2.0 0.00 0.00 0.00 33 992.6
20260831214551 99 20 0.0 2.0 0.00 0.00 0.00 33 992.8
20260831213050 99 133 0.0 2.0 0.00 0.00 0.00 35 992.8
20260831211549 99 84 3.0 10.0 0.00 0.00 0.00 36 993.0
20260831210048 98 89 0.0 11.0 0.00 0.00 0.00 36 993.2
20260831204556 98 48 1.0 8.0 0.00 0.00 0.00 37 993.4
20260831203100 98 31 0.0 3.0 0.00 0.00 0.00 36 993.6
20260831201548 98 4 0.0 10.0 0.00 0.00 0.00 36 993.8
20260831200052 99 75 0.0 4.0 0.00 0.00 0.00 33 993.9
20260831194543 97 70 0.0 2.0 0.00 0.00 0.00 36 994.2
20260831193046 96 104 0.0 7.0 0.00 0.00 0.00 40 994.5
20260831191542 98 66 1.0 9.0 0.00 0.00 0.00 40 994.7
20260831190053 97 23 0.0 10.0 0.00 0.00 0.00 41 994.7
20260831184540 97 359 0.0 11.0 0.00 0.00 0.00 42 994.8
20260831183039 97 66 0.0 4.0 0.00 0.00 0.00 41 995.0
20260831181550 98 102 0.0 2.0 0.00 0.00 0.00 43 995.1
20260831180037 98 182 0.0 2.0 0.00 0.00 0.00 43 995.5
20260831174542 96 118 0.0 5.0 0.00 0.00 0.00 45 995.7
20260831173032 96 120 0.0 2.0 0.00 0.00 0.00 45 995.9
20260831171532 95 73 0.0 8.0 0.00 0.00 0.00 46 996.0
20260831170033 94 51 0.0 1.0 0.00 0.00 0.00 47 996.1
20260831164520 93 117 0.0 1.0 0.00 0.00 0.00 49 996.2
20260831163018 93 77 0.0 1.0 0.00 0.00 0.00 50 996.3
20260831161515 92 81 0.0 4.0 0.00 0.00 0.00 52 996.3
20260831160014 91 100 0.0 1.0 0.00 0.00 0.00 53 996.4
20260831154510 90 141 0.0 2.0 0.00 0.00 0.00 55 996.5
20260831153005 89 147 0.0 1.0 0.00 0.00 0.00 57 996.4
20260831151501 87 66 0.0 1.0 0.00 0.00 0.00 60 996.3
20260831150100 87 79 0.0 1.0 0.00 0.00 0.00 63 996.3
20260831144606 86 127 0.0 1.0 0.00 0.00 0.00 65 996.2
20260831143100 84 145 0.0 1.0 0.00 0.00 0.00 69 996.2
20260831141558 83 143 0.0 1.0 0.00 0.00 0.00 71 996.1